Weather History for New Iberia, LA

Change the Weather History Date:

Tuesday, February 12, 2013

  Actual Average Record
Temperature  
Mean Temperature 67 °F 55 °F  
Max Temperature 76 °F 65 °F 80 °F (1950)
Min Temperature 58 °F 45 °F 24 °F (1981)
Degree Days  
Heating Degree Days 0 11  
Month to date heating degree days 32 137  
Since 1 July heating degree days 748 1074  
Cooling Degree Days 2 1  
Month to date cooling degree days 10 8  
Year to date cooling degree days 48 20  
Growing Degree Days 16 (Base 50)    
Moisture  
Dew Point 60 °F    
Average Humidity 86    
Maximum Humidity 93    
Minimum Humidity 78    
Precipitation  
Precipitation 0.01 in 0.16 in 2.26 in (1966)
Month to date precipitation 2.55 1.67  
Year to date precipitation 15.35 6.89  
Sea Level Pressure  
Sea Level Pressure 29.87 in    
Wind  
Wind Speed 11 mph (North)    
Max Wind Speed 22 mph    
Max Gust Speed 31 mph    
Visibility 7 miles    
Events Rain , Thunderstorm    
T = Trace of Precipitation, MM = Missing Value Source: NWS Daily Summary

Daily Weather History Graph

Daily Weather History Graph

Search for Another Location

Airport:

Trip Planner

Search our weather history database for the weather conditions in past years. The results will help you decide how hot, cold, wet, or windy it might be!

Date:

Astronomy

Feb. 12, 2013 Rise Set
Actual Time 6:49 AM CST 5:54 PM CST
Civil Twilight 6:25 AM CST 6:18 PM CST
Nautical Twilight 5:57 AM CST 6:46 PM CST
Astronomical Twilight 5:29 AM CST 7:14 PM CST
Moon 8:02 AM CST (2/12) 8:37 PM CST (2/12)
Length of Visible Light 11h 53m
Length of Day
11h 04m
Waxing Crescent, 7% of the Moon is Illuminated
Feb 12
Waxing Crescent
Feb 17
First Quarter
Feb 25
Full
Mar 4
Last Quarter
Mar 11
New

Hourly Weather History & Observations

Time (CST) Temp. Dew Point Humidity Pressure Visibility Wind Dir Wind Speed Gust Speed Precip Events Conditions
12:02 AM 57.2 °F 53.6 °F 88% 30.04 in 10.0 mi NE 12.7 mph - 0.00 in Rain , Thunderstorm Light Rain
12:17 AM 57.2 °F 53.6 °F 88% 30.01 in 10.0 mi NE 15.0 mph - 0.00 in   Overcast
12:53 AM 57.9 °F 54.0 °F 87% 30.01 in 10.0 mi ENE 12.7 mph - 0.00 in   Overcast
1:51 AM 57.2 °F 53.6 °F 88% 29.99 in 10.0 mi ENE 15.0 mph - N/A   Overcast
1:53 AM 57.9 °F 54.0 °F 87% 29.99 in 10.0 mi ENE 12.7 mph 20.7 mph N/A   Overcast
2:25 AM 57.2 °F 53.6 °F 88% 29.98 in 10.0 mi ENE 13.8 mph 19.6 mph N/A   Overcast
2:53 AM 57.9 °F 54.0 °F 87% 29.96 in 10.0 mi ENE 13.8 mph - N/A   Overcast
3:53 AM 57.9 °F 54.0 °F 87% 29.95 in 9.0 mi ENE 9.2 mph - N/A   Overcast
4:53 AM 57.9 °F 55.0 °F 90% 29.94 in 8.0 mi ENE 11.5 mph - N/A   Overcast
5:42 AM 57.2 °F 55.4 °F 94% 29.92 in 3.0 mi East 11.5 mph - N/A   Overcast
5:53 AM 57.9 °F 55.0 °F 90% 29.92 in 3.0 mi East 9.2 mph - N/A   Overcast
6:02 AM 57.2 °F 55.4 °F 94% 29.91 in 2.5 mi East 9.2 mph - N/A   Overcast
6:53 AM 59.0 °F 57.0 °F 93% 29.91 in 2.0 mi East 8.1 mph - N/A   Overcast
7:00 AM 59.0 °F 57.2 °F 94% 29.91 in 1.8 mi East 6.9 mph - N/A   Overcast
7:53 AM 61.0 °F 57.9 °F 90% 29.90 in 1.2 mi ESE 8.1 mph - N/A   Overcast
8:24 AM 62.6 °F 59.0 °F 88% 29.88 in 2.0 mi ESE 13.8 mph - N/A   Overcast
8:41 AM 62.6 °F 59.0 °F 88% 29.86 in 1.8 mi ESE 16.1 mph - N/A   Overcast
8:53 AM 62.1 °F 60.1 °F 93% 29.87 in 1.5 mi ESE 11.5 mph - N/A   Overcast
9:53 AM 64.0 °F 61.0 °F 90% 29.87 in 1.0 mi ESE 10.4 mph - N/A   Overcast
10:17 AM 64.4 °F 62.6 °F 94% 29.88 in 0.5 mi ESE 6.9 mph - N/A   Overcast
10:48 AM 64.4 °F 62.6 °F 94% 29.87 in 1.2 mi ESE 5.8 mph - N/A   Overcast
10:53 AM 64.9 °F 63.0 °F 93% 29.86 in 1.2 mi ESE 5.8 mph - N/A   Overcast
11:02 AM 64.4 °F 62.6 °F 94% 29.86 in 0.5 mi ESE 6.9 mph - N/A   Overcast
11:53 AM 66.9 °F 64.0 °F 90% 29.84 in 0.5 mi ESE 5.8 mph - N/A   Overcast
12:40 PM 69.8 °F 66.2 °F 88% 29.82 in 2.0 mi Calm Calm - 0.01 in Rain Light Rain
12:49 PM 69.8 °F 66.2 °F 88% 29.81 in 2.5 mi NNE 3.5 mph - 0.01 in   Overcast
12:53 PM 70.0 °F 66.0 °F 87% 29.81 in 2.5 mi Calm Calm - 0.01 in   Overcast
1:05 PM 66.2 °F 64.4 °F 94% 29.81 in 1.5 mi NW 5.8 mph - 0.00 in Rain Light Rain
1:22 PM 66.2 °F 64.4 °F 94% 29.80 in 1.0 mi North 4.6 mph - 0.00 in   Overcast
1:46 PM 71.6 °F 68.0 °F 88% 29.78 in 4.0 mi SSW 8.1 mph - 0.00 in   Overcast
1:53 PM 73.9 °F 70.0 °F 87% 29.78 in 5.0 mi South 10.4 mph - 0.00 in   Overcast
2:53 PM 73.9 °F 70.0 °F 87% 29.77 in 6.0 mi SSW 13.8 mph - 0.00 in Rain Light Rain
3:00 PM 73.4 °F 69.8 °F 88% 29.76 in 7.0 mi SSW 11.5 mph - 0.00 in Rain Light Rain
3:53 PM 75.9 °F 69.1 °F 79% 29.76 in 10.0 mi SW 12.7 mph - 0.00 in   Overcast
4:53 PM 75.0 °F 68.0 °F 79% 29.75 in 10.0 mi WSW 17.3 mph 26.5 mph N/A   Mostly Cloudy
5:11 PM 75.2 °F 68.0 °F 78% 29.75 in 9.0 mi WSW 17.3 mph 24.2 mph N/A   Mostly Cloudy
5:18 PM 75.2 °F 68.0 °F 78% 29.76 in 9.0 mi WSW 16.1 mph 24.2 mph N/A   Mostly Cloudy
5:31 PM 73.4 °F 68.0 °F 83% 29.75 in 8.0 mi WSW 18.4 mph 25.3 mph N/A   Mostly Cloudy
5:53 PM 73.9 °F 66.9 °F 79% 29.77 in 8.0 mi West 16.1 mph 25.3 mph N/A   Overcast
6:01 PM 73.4 °F 66.2 °F 78% 29.79 in 8.0 mi West 15.0 mph 23.0 mph N/A   Mostly Cloudy
6:29 PM 69.8 °F 64.4 °F 83% 29.79 in 10.0 mi NW 16.1 mph 21.9 mph N/A   Mostly Cloudy
6:38 PM 69.8 °F 62.6 °F 78% 29.80 in 10.0 mi WNW 15.0 mph 23.0 mph N/A   Mostly Cloudy
6:53 PM 68.0 °F 62.1 °F 81% 29.81 in 10.0 mi WNW 10.4 mph 20.7 mph N/A   Partly Cloudy
7:23 PM 66.2 °F 60.8 °F 83% 29.82 in 10.0 mi NW 15.0 mph 20.7 mph N/A   Mostly Cloudy
7:53 PM 64.0 °F 59.0 °F 84% 29.83 in 10.0 mi NW 12.7 mph - N/A   Mostly Cloudy
8:01 PM 64.4 °F 57.2 °F 77% 29.83 in 10.0 mi WNW 10.4 mph - N/A   Scattered Clouds
8:53 PM 62.1 °F 57.0 °F 84% 29.86 in 10.0 mi NW 8.1 mph - N/A   Clear
9:15 PM 62.6 °F 55.4 °F 77% 29.87 in 10.0 mi WNW 12.7 mph - N/A   Mostly Cloudy
9:46 PM 60.8 °F 55.4 °F 82% 29.88 in 10.0 mi NW 10.4 mph - N/A   Scattered Clouds
9:53 PM 61.0 °F 54.0 °F 78% 29.88 in 10.0 mi NW 13.8 mph - N/A   Scattered Clouds
10:01 PM 60.8 °F 53.6 °F 77% 29.88 in 10.0 mi NNW 15.0 mph - N/A   Mostly Cloudy
10:09 PM 60.8 °F 53.6 °F 77% 29.88 in 10.0 mi NW 13.8 mph - N/A   Mostly Cloudy
10:23 PM 60.8 °F 53.6 °F 77% 29.89 in 10.0 mi NW 13.8 mph - N/A   Scattered Clouds
10:48 PM 60.8 °F 53.6 °F 77% 29.91 in 10.0 mi NW 15.0 mph - N/A   Mostly Cloudy
10:53 PM 60.1 °F 53.1 °F 78% 29.91 in 10.0 mi NW 13.8 mph - N/A   Mostly Cloudy
11:23 PM 59.0 °F 53.6 °F 82% 29.91 in 10.0 mi NNW 11.5 mph - N/A   Overcast
11:39 PM 57.2 °F 51.8 °F 82% 29.91 in 10.0 mi NNW 9.2 mph - N/A   Scattered Clouds
11:53 PM 57.9 °F 52.0 °F 81% 29.92 in 10.0 mi NNW 10.4 mph - N/A   Clear